Fond du Lac, WI

4:45 PM CDT on May 22, 2017 (GMT -0500)
Fond du Lac County

Weather History for KFLD - January, 2014

Change the Weather History Date:

Thursday, January 23, 2014

  Actual Average Record
Temperature  
Mean Temperature 0 °F -  
Max Temperature 7 °F 29 °F 46 °F (1989)
Min Temperature -7 °F 12 °F -28 °F (1963)
Degree Days  
Heating Degree Days 65    
Moisture  
Dew Point -10 °F    
Average Humidity 63    
Maximum Humidity 69    
Minimum Humidity 55    
Precipitation  
Precipitation 0.00 in - - ()
Sea Level Pressure  
Sea Level Pressure 30.43 in    
Wind  
Wind Speed 16 mph (WNW)    
Max Wind Speed 22 mph    
Max Gust Speed 30 mph    
Visibility 9 miles    
Events      
Averages and records for this station are not official NWS values.
T = Trace of Precipitation, MM = Missing Value Source: NWS Daily Summary

Daily Weather History Graph

Daily Weather History Graph

Search for Another Location

Airport or City:

Trip Planner

Search our weather history database for the weather conditions in past years. The results will help you decide how hot, cold, wet, or windy it might be!

Date:

Astronomy

Jan. 23, 2014 Rise Set
Actual Time 7:19 AM CST 4:52 PM CST
Civil Twilight 6:48 AM CST 5:24 PM CST
Nautical Twilight 6:13 AM CST 5:59 PM CST
Astronomical Twilight 5:39 AM CST 6:33 PM CST
Moon No Moon Rise 10:39 AM CST (1/23)
Length of Visible Light 10h 35m
Length of Day
9h 33m
Waning Gibbous, 55% of the Moon is Illuminated
Jan 23
Waning Gibbous
Jan 23
Last Quarter
Jan 30
New
Feb 6
First Quarter
Feb 14
Full

Hourly Weather History & Observations

Time (CST) Temp. Windchill Dew Point Humidity Pressure Visibility Wind Dir Wind Speed Gust Speed Precip Events Conditions
12:53 AM -2.9 °F -26.7 °F -11.0 °F 68% 30.19 in 5.0 mi WNW 21.9 mph 28.8 mph N/A   Haze
1:01 AM -2.0 °F -23.3 °F -9.9 °F 69% 30.13 in 4.0 mi WNW 17.3 mph 27.6 mph N/A   Haze
1:21 AM -2.0 °F -24.4 °F -9.9 °F 69% 30.14 in 4.0 mi NW 19.6 mph 27.6 mph 0.00 in   Overcast
1:53 AM -0.9 °F -21.9 °F -9.0 °F 69% 30.22 in 5.0 mi WNW 17.3 mph 29.9 mph 0.00 in   Overcast
2:53 AM -0.9 °F -22.4 °F -9.0 °F 69% 30.26 in 10.0 mi NW 18.4 mph - 0.00 in   Overcast
3:50 AM -0.4 °F -21.7 °F -9.4 °F 66% 30.22 in 10.0 mi NW 18.4 mph 25.3 mph N/A   Mostly Cloudy
3:53 AM -0.0 °F -22.4 °F -9.0 °F 66% 30.29 in 10.0 mi WNW 20.7 mph 25.3 mph N/A   Overcast
4:53 AM 1.9 °F -20.2 °F -7.1 °F 66% 30.33 in 10.0 mi NW 21.9 mph 28.8 mph N/A   Overcast
5:38 AM 1.0 °F -19.9 °F -9.0 °F 63% 30.29 in 10.0 mi NW 18.4 mph - N/A   Scattered Clouds
5:53 AM -0.0 °F -21.8 °F -9.0 °F 66% 30.37 in 10.0 mi WNW 19.6 mph - N/A   Clear
6:53 AM -0.9 °F -21.2 °F -9.9 °F 66% 30.42 in 10.0 mi NW 16.1 mph - N/A   Clear
7:53 AM -0.9 °F -19.9 °F -9.9 °F 66% 30.46 in 10.0 mi NW 13.8 mph - N/A   Clear
8:53 AM -0.9 °F -20.6 °F -9.9 °F 66% 30.51 in 10.0 mi NW 15.0 mph - N/A   Clear
9:53 AM 1.9 °F -16.9 °F -9.0 °F 60% 30.53 in 10.0 mi NW 15.0 mph - N/A   Clear
10:53 AM 3.0 °F -13.3 °F -8.0 °F 60% 30.55 in 10.0 mi NNW 11.5 mph - N/A   Clear
11:53 AM 5.0 °F -10.8 °F -6.0 °F 61% 30.56 in 10.0 mi NNW 11.5 mph - N/A   Clear
12:53 PM 7.0 °F -7.5 °F -6.0 °F 55% 30.56 in 10.0 mi NW 10.4 mph - N/A   Clear
1:53 PM 6.1 °F -9.5 °F -6.0 °F 58% 30.55 in 10.0 mi West 11.5 mph - N/A   Clear
2:53 PM 6.1 °F -10.2 °F -7.1 °F 55% 30.56 in 10.0 mi WNW 12.7 mph - N/A   Clear
3:53 PM 5.0 °F -10.0 °F -8.0 °F 55% 30.57 in 10.0 mi WNW 10.4 mph - N/A   Clear
4:53 PM 3.0 °F -11.5 °F -9.9 °F 55% 30.58 in 10.0 mi West 9.2 mph - N/A   Clear
5:53 PM 1.0 °F -12.9 °F -11.9 °F 55% 30.58 in 10.0 mi West 8.1 mph - N/A   Clear
6:53 PM -0.9 °F -14.1 °F -11.9 °F 60% 30.57 in 10.0 mi WSW 6.9 mph - N/A   Clear
7:53 PM -2.9 °F -15.0 °F -14.1 °F 59% 30.57 in 10.0 mi WSW 5.8 mph - N/A   Clear
8:53 PM -4.0 °F -17.8 °F -15.0 °F 59% 30.55 in 10.0 mi WSW 6.9 mph - N/A   Clear
9:53 PM -6.0 °F -18.6 °F -15.0 °F 65% 30.53 in 10.0 mi SW 5.8 mph - N/A   Clear
10:53 PM -7.1 °F -19.9 °F -16.1 °F 65% 30.51 in 10.0 mi SW 5.8 mph - N/A   Clear
11:53 PM -7.1 °F -23.9 °F -17.0 °F 62% 30.46 in 10.0 mi SW 9.2 mph - N/A   Clear